Flag for Bosnia-Herzegovina Weather past 2 weeks in Mostar, Bosnia-Herzegovina

Now
73 °F

Passing clouds.


Feels Like: 77 °F
Forecast: 48 / 83 °F
Wind: 5 mph from Southeast

Location: Mostar

Current Time: Sep 30, 2014 at 6:22:48 PM

Latest Report: Sep 30, 2014 at 6:00 PM


Visibility: N/A

Pressure: 30.24 "Hg

Humidity: 57%

Dew point: 57 °F

Location of MostarLocation

Historic Weather in Mostar — Graph

°F

Mostar temperature yesterday

Maximum temperature yesterday: 77 °F (at 2:30 PM)
Minimum temperature yesterday: 46 °F (at 7:00 AM)
Average temperature yesterday: 63 °F

Past Weeks' High & Low Weather Summary

 TemperatureHumidityPressure
High81 °F (Sep 17, 3:00 PM)100% (Sep 16, 6:30 AM)30.39 "Hg (Sep 16, 6:30 AM)
Low43 °F (Sep 24, 4:00 AM)31% (Sep 24, 2:00 PM)29.71 "Hg (Sep 23, 3:00 AM)
Average65 °F65%30.07 "Hg
* Reported Sep 15 5:00 PM — Sep 30 5:00 PM, Mostar, Weather by CustomWeather, © 2014

Note: Actual official high and low records may vary slightly from our data, if they occured in-between our weather recording intervals... More about our weather records

Advertising

Mostar weather history for previous 24 hours

 ConditionsComfort  
Time TempWeatherWind HumidityBarometerVisibility
5:00 PM
Sep 30
77 °FPassing clouds.7 mph51%30.21 "HgN/A
4:30 PM77 °FPassing clouds.5 mph51%30.21 "HgN/A
4:00 PM79 °FPassing clouds.3 mph48%30.21 "HgN/A
3:30 PM79 °FPassing clouds.5 mph45%30.24 "HgN/A
3:00 PM79 °FPassing clouds.6 mph48%30.24 "HgN/A
2:30 PM79 °FPassing clouds.6 mph45%30.24 "HgN/A
2:00 PM77 °FPassing clouds.3 mph47%30.24 "HgN/A
1:30 PM77 °FPassing clouds.5 mph44%30.27 "HgN/A
1:00 PM75 °FPassing clouds.3 mph44%30.27 "HgN/A
12:30 PM72 °FSunny.2 mph50%30.27 "Hg10 mi
12:00 PM72 °FSunny.2 mph53%30.27 "Hg10 mi
11:30 AM68 °FSunny.2 mph56%30.30 "Hg10 mi
11:00 AM66 °FClear.3 mph60%30.30 "HgN/A
10:30 AM64 °FClear.3 mph73%30.30 "HgN/A
10:00 AM63 °FClear.2 mph73%30.30 "HgN/A
9:30 AM61 °FClear.1 mph83%30.30 "HgN/A
9:00 AM59 °FClear.1 mph82%30.30 "HgN/A
8:30 AM54 °FClear.1 mph94%30.30 "HgN/A
8:00 AM50 °FSnow. Clear.2 mph100%30.30 "HgN/A
7:30 AM48 °FClear.2 mph94%30.30 "Hg4 mi
7:00 AM48 °FClear.1 mph87%30.30 "Hg10 mi
6:30 AM48 °FClear.2 mph100%30.30 "Hg10 mi
6:00 AM50 °FClear.2 mph94%30.30 "Hg10 mi
5:30 AM48 °FClear.2 mph100%30.30 "Hg10 mi
5:00 AM48 °FClear.2 mph94%30.30 "Hg10 mi
4:00 AM50 °FClear.1 mph94%30.33 "Hg10 mi
3:00 AM52 °FClear.2 mph88%30.33 "Hg10 mi
2:00 AM54 °FClear.2 mph94%30.33 "Hg10 mi
1:00 AM54 °FClear.3 mph94%30.33 "Hg10 mi
12:00 AM55 °FClear.1 mph88%30.33 "Hg10 mi
11:00 PM
Sep 29
57 °FClear.2 mph88%30.36 "Hg10 mi
10:00 PM59 °FClear.1 mph82%30.33 "Hg10 mi
9:00 PM61 °FClear.5 mph83%30.33 "Hg10 mi
8:00 PM64 °FPassing clouds.3 mph73%30.33 "HgN/A
7:30 PM64 °FSunny.5 mph73%30.33 "Hg10 mi
7:00 PM68 °FSunny.6 mph64%30.33 "Hg10 mi
6:30 PM70 °FPassing clouds.3 mph60%30.33 "HgN/A
6:00 PM73 °FPassing clouds.6 mph53%30.33 "HgN/A
Weather by CustomWeather, © 2014

See weather overviewHow to use our weather pages